User: anonymous   Login
Location: Bush Observatory
(40.2653°N, 94.3194°W)
Time: 05:26:30
(UTC-05:00)
Language:

Cosmos 1933 Rocket - Orbit

View from above orbital plane
View from above orbital plane
View from above satellite
View from above satellite

Ground track
Ground track

The orbit data is extracted from the following two-line orbital elements,

1 18959U 88020B   16240.85262869  .00000101  00000-0  93954-5 0  9996
2 18959  82.5394 184.9052 0017695  29.4321 330.7886 14.83292370537091
Epoch (UTC): 27 August 2016 20:27:47
Eccentricity: 0.0017695
inclination: 82.5394°
perigee height: 606 km
apogee height: 631 km
right ascension of ascending node: 184.9052°
argument of perigee: 29.4321°
revolutions per day: 14.83292370
mean anomaly at epoch: 330.7886°
orbit number at epoch: 53709

The dashed part of the orbit path shows where the satellite is in the earth's shadow,  

DLR